GEFSMW_con_cape1000_162.txt.gz
Probability
94 90 90 81 77 81 74 81 81 87 84 84 84 87 74 87 90 90 84 81 77 84 87 90 90 90 94 87 74 65 61 77 77 52 45 71 58 58 74 81 68 39 42
94 87 90 77 71 77 81 74 71 77 77 77 77 77 81 77 84 84 81 81 84 81 52 90 90 90 90 87 71 71 77 74 68 68 39 32 42 71 29 68 71 45 45
90 87 87 77 77 77 71 65 71 71 71 71 71 74 74 71 77 81 84 77 87 87 81 87 90 87 87 87 81 77 71 65 77 71 55 16 16 35 61 58 45 68 71
90 87 87 84 77 74 68 65 68 68 65 68 77 74 65 68 74 87 87 84 84 84 84 74 84 87 84 84 81 71 81 81 61 77 58 65 48 35 26 39 39 52 61
81 84 84 81 81 81 65 58 61 65 65 74 77 84 74 84 84 87 84 90 90 87 87 87 81 84 84 81 74 77 81 84 74 71 68 61 65 48 32 13 16 35 48
84 87 81 81 81 71 68 68 68 68 71 71 74 77 77 77 84 81 84 87 90 84 84 90 87 87 90 87 87 77 71 77 71 68 58 58 48 42 32 16 16 19 26
87 87 77 74 68 74 65 74 71 65 68 68 84 84 77 77 81 87 87 84 84 84 90 84 84 87 84 87 84 81 77 68 68 68 71 61 52 48 45 32 13 19 23
81 81 77 74 68 71 68 74 68 71 71 74 81 77 77 81 77 81 84 87 81 74 81 90 84 84 74 68 84 74 74 68 68 48 65 65 65 61 61 42 19 10 13
74 74 74 71 74 71 71 68 74 77 74 74 81 81 81 87 77 81 84 77 77 68 71 65 71 71 68 74 74 74 68 65 61 55 58 61 52 58 61 55 58 16 13
65 68 71 71 71 77 77 74 77 84 77 74 74 65 74 77 77 74 74 77 74 71 74 68 65 68 71 61 71 65 61 61 68 68 58 58 52 39 48 42 42 32 19
65 68 65 74 68 71 74 77 77 81 81 68 77 74 71 68 71 74 74 77 74 65 68 65 52 58 55 52 52 55 48 48 42 45 35 39 39 39 32 26 29 26 23
68 65 74 84 77 74 77 77 74 74 77 71 77 74 65 58 71 68 68 65 68 61 58 55 48 52 45 42 42 35 39 23 23 32 29 23 19 29 29 32 26 26 26
68 81 81 87 77 77 74 71 74 71 74 74 74 61 55 65 68 65 61 61 61 65 55 55 52 42 42 39 35 29 32 32 26 23 13 23 23 23 26 26 23 23 6
90 90 90 90 90 90 84 77 74 68 74 68 65 65 61 61 55 52 61 58 55 52 45 45 42 39 35 29 19 23 23 26 29 26 19 19 19 16 16 13 19 13 13
87 94 87 87 87 84 81 81 77 74 71 68 65 61 58 52 39 42 45 42 42 35 39 39 32 32 26 16 13 16 19 26 26 19 16 16 16 10 6 6 13 13 10
77 84 90 90 87 84 74 81 77 77 74 71 61 55 45 35 42 42 42 39 39 35 32 32 29 26 13 10 3 6 16 23 23 19 13 13 10 6 3 3 3 3 6
84 84 87 90 90 81 77 81 81 68 74 58 58 52 39 45 35 32 35 35 35 32 32 23 23 19 10 3 0 0 19 23 19 16 13 6 10 6 6 3 3 0 0
87 87 81 87 84 84 81 74 77 68 61 58 48 42 35 29 29 32 29 32 29 26 23 23 23 19 3 3 0 0 6 13 16 10 6 10 6 3 3 3 3 0 3
81 84 81 81 84 87 84 74 74 65 65 48 39 32 26 26 29 32 32 29 26 26 26 19 19 16 6 3 0 0 0 10 10 6 6 6 3 3 3 3 3 3 3
74 81 81 81 84 81 81 74 71 65 55 48 42 39 35 39 29 29 26 26 26 19 19 19 19 19 13 3 0 0 3 6 13 6 6 3 3 3 3 3 3 3 3
77 81 81 74 77 81 77 68 65 61 52 45 42 35 35 26 26 26 23 23 23 23 19 16 16 19 13 3 0 0 3 3 6 3 3 3 0 0 0 0 3 3 3
68 68 71 74 77 77 74 68 61 52 48 35 26 19 23 19 16 26 23 23 23 23 19 16 16 13 6 3 3 0 0 3 3 3 3 3 0 0 0 0 0 0 0
68 65 61 65 74 71 68 65 52 48 42 26 19 19 19 19 19 16 16 16 23 19 19 19 13 10 6 3 3 0 0 0 0 3 3 0 0 0 0 0 0 0 0
61 61 58 58 58 61 52 48 42 35 29 23 19 19 16 16 19 16 16 19 16 16 13 13 13 3 3 3 3 0 0 0 0 0 0 0 0 0 0 0 0 0 0
52 48 48 48 42 42 39 39 29 32 26 19 19 16 16 13 13 19 16 19 13 6 16 16 19 6 3 0 0 0 3 3 0 3 3 3 0 0 0 0 0 0 0
45 45 45 39 35 35 35 26 29 29 23 19 13 13 13 16 13 13 10 0 0 0 0 0 0 3 0 0 0 0 0 0 0 0 3 3 3 0 0 0 0 0 0

GEFSMW_con_cape1000_168.txt.gz
Probability
61 65 61 58 52 42 39 42 42 29 29 26 23 19 16 19 13 6 13 13 10 10 10 13 0 3 3 3 0 0 0 0 0 0 0 0 0 0 0 0 0 0 3
65 61 68 65 55 42 35 32 35 29 32 29 26 19 10 13 0 6 10 13 10 10 10 10 0 3 0 0 0 0 0 0 0 0 0 0 0 0 0 0 0 0 0
65 65 68 58 55 52 35 32 35 26 26 26 26 23 6 10 6 3 6 10 6 6 10 0 3 3 0 0 0 0 0 0 0 0 0 0 0 0 0 0 0 0 0
61 58 55 65 55 45 48 29 32 26 23 23 19 19 10 3 3 0 3 3 6 6 10 0 6 3 0 0 0 0 0 0 0 0 0 0 0 0 0 0 0 0 0
65 68 58 58 55 48 45 42 29 26 26 23 19 19 10 3 3 3 0 0 3 6 6 3 3 0 0 0 0 0 0 0 0 0 0 0 0 0 0 0 0 0 0
71 71 65 55 48 52 52 42 39 32 32 29 23 19 19 10 6 0 3 3 0 0 10 10 0 0 0 0 0 0 0 0 0 0 0 0 0 0 0 0 0 0 0
65 61 65 52 52 55 48 45 42 42 35 35 26 23 23 16 6 3 3 3 3 3 6 6 0 0 0 0 0 0 0 0 0 0 0 0 0 0 0 0 0 0 0
61 61 61 52 55 55 52 48 42 42 39 42 35 35 26 23 13 10 3 3 6 6 3 3 3 0 0 0 0 0 0 0 0 3 0 0 0 0 0 0 0 0 0
61 61 61 55 55 55 55 52 42 39 45 45 32 26 23 23 16 16 16 10 6 0 0 3 3 0 0 0 3 3 3 3 3 0 0 0 0 0 0 0 0 0 0
61 61 61 55 55 58 58 45 48 45 45 35 35 29 26 19 19 16 13 13 6 6 3 3 0 0 0 0 0 3 3 3 3 3 0 0 0 0 0 0 0 0 0
61 65 58 58 58 58 52 45 42 45 29 29 32 32 32 29 23 19 13 13 10 6 6 3 0 0 0 0 0 0 3 3 3 0 0 0 0 0 0 0 0 0 0
48 42 52 61 58 52 48 45 42 35 32 32 32 32 35 29 29 26 16 16 19 13 6 3 0 0 3 0 0 0 0 0 0 0 0 0 0 0 0 0 0 0 0
35 42 48 52 52 48 48 42 45 32 32 29 35 35 26 23 26 23 23 16 16 16 10 10 6 3 3 3 0 0 0 0 0 0 0 0 3 3 0 0 0 0 0
45 42 48 48 45 52 52 45 39 35 32 32 32 26 23 16 19 16 16 19 16 13 10 6 3 3 3 3 3 3 3 3 0 0 0 0 0 0 3 0 0 0 0
45 45 42 39 45 52 48 45 45 35 39 29 23 19 19 16 13 10 13 13 13 13 13 6 6 6 3 3 3 3 3 0 0 0 0 0 0 0 0 0 0 0 0
52 48 52 39 48 48 55 45 42 32 32 23 19 19 19 19 16 16 16 19 19 10 6 10 6 3 6 0 0 0 0 0 0 0 0 0 0 0 0 0 0 0 0
55 58 58 55 52 52 48 39 35 35 32 26 19 19 23 19 16 19 16 10 10 10 6 6 6 6 3 0 0 0 0 0 0 0 0 3 3 0 0 0 0 0 0
55 52 61 52 55 52 42 35 32 35 29 23 23 23 19 19 16 13 13 13 13 13 6 6 10 6 3 0 0 0 0 0 0 0 0 0 0 0 0 0 0 0 0
58 55 61 58 55 48 39 35 35 35 26 26 26 23 23 19 10 10 10 10 10 10 10 10 10 6 3 0 0 0 0 0 0 0 0 0 0 0 0 0 0 0 0
55 68 58 52 55 48 42 39 42 32 26 23 16 16 16 13 10 10 10 10 10 10 10 10 10 6 3 3 0 0 0 0 0 0 0 0 0 0 0 0 0 0 0
52 58 52 55 52 48 48 42 39 26 16 13 13 13 10 6 6 6 6 6 10 10 10 10 10 10 3 3 0 0 0 0 0 0 0 0 0 0 0 0 0 0 0
42 45 45 48 39 42 35 32 32 16 13 13 13 13 6 6 6 6 6 6 6 10 10 10 10 6 3 3 0 0 0 0 0 0 0 0 0 0 0 0 0 0 0
39 42 45 39 32 32 35 29 26 13 13 13 13 10 6 6 6 6 6 6 6 6 6 6 6 3 3 0 0 0 0 0 0 0 0 0 0 0 0 0 0 0 0
29 26 32 32 26 26 19 23 19 13 13 13 10 6 6 6 6 6 6 6 6 6 6 6 6 6 0 0 0 0 0 0 0 0 0 0 0 0 0 0 0 0 0
26 26 26 23 19 23 23 16 13 10 10 10 3 3 3 6 6 3 3 6 3 3 3 6 6 6 0 0 0 0 0 0 0 0 0 0 0 0 0 0 0 0 0
23 19 13 10 13 13 16 13 6 6 6 6 6 3 3 3 0 3 3 3 3 3 3 3 3 3 0 0 0 0 0 0 0 0 0 0 0 0 0 0 0 0 0

GEFSMW_con_cape1000_174.txt.gz
Probability
45 42 35 32 19 13 10 3 0 6 10 6 3 3 3 3 3 3 6 6 3 3 0 0 0 0 0 3 0 0 0 0 0 0 0 0 0 0 0 0 3 3 3
45 48 39 29 23 13 16 13 3 6 10 10 10 3 3 3 3 3 3 3 0 0 3 0 0 0 0 0 0 0 0 0 0 0 0 0 0 0 0 0 0 3 0
48 45 42 32 23 16 16 23 6 10 10 10 6 3 3 3 0 3 3 3 0 0 0 3 0 0 0 0 0 0 0 0 0 0 0 0 0 0 0 0 0 0 0
42 42 45 32 26 26 19 16 13 16 13 6 13 10 6 6 3 0 3 3 0 0 0 0 0 0 0 0 0 0 0 0 0 0 0 0 0 0 0 0 0 0 0
45 39 45 45 32 23 23 16 16 10 10 6 10 10 10 0 0 0 0 0 0 0 0 3 0 0 0 0 0 0 0 0 0 0 0 0 0 0 0 0 0 0 0
42 42 45 35 39 32 29 16 13 16 13 10 10 10 10 0 0 0 0 0 0 0 0 3 0 0 0 0 0 0 0 0 0 0 0 0 0 0 0 0 0 0 0
45 42 39 35 32 42 39 23 13 16 16 16 13 16 13 3 0 0 0 0 0 0 0 0 0 0 0 0 0 0 0 0 0 0 0 0 0 0 0 0 0 0 0
39 45 39 35 35 39 35 35 19 19 16 16 16 13 16 10 3 0 0 0 0 0 0 0 0 0 0 0 0 0 0 0 0 0 0 0 0 0 0 0 0 0 0
45 39 45 39 35 39 39 35 26 23 23 23 23 16 13 13 13 6 3 0 0 0 0 0 0 0 0 3 3 0 0 0 0 0 0 0 0 0 0 0 0 0 0
42 48 39 35 35 32 35 32 26 19 23 23 23 23 19 16 13 10 6 6 3 3 0 0 0 0 0 0 0 3 0 0 0 0 0 0 0 0 0 0 0 0 0
39 35 32 26 32 32 35 35 29 23 23 23 23 19 16 19 16 13 10 10 6 3 3 3 0 0 0 0 0 0 0 0 0 0 0 3 0 0 0 0 0 0 0
29 35 32 29 32 35 35 35 32 29 23 23 19 19 19 16 13 10 6 3 3 3 3 3 3 3 0 0 0 0 0 0 0 0 0 0 0 0 0 0 0 0 0
32 32 26 32 32 32 35 35 32 29 26 16 16 13 13 13 6 6 3 0 0 0 0 3 3 3 3 3 3 3 3 3 0 0 0 3 0 0 0 0 0 0 0
32 32 29 35 32 29 39 35 32 26 23 19 13 13 13 10 6 6 3 0 0 0 3 3 3 3 3 3 3 3 3 3 3 3 3 3 3 0 0 0 0 0 0
39 39 35 35 35 35 39 35 29 26 23 19 13 13 6 3 3 3 0 0 0 0 3 3 3 3 3 3 3 3 3 3 3 3 3 0 0 0 0 0 0 0 0
42 35 35 39 32 42 42 39 29 26 23 19 16 6 3 3 3 0 0 0 0 3 3 3 3 3 3 3 3 3 3 3 3 3 0 0 0 0 0 0 0 0 0
42 35 32 39 35 39 35 35 32 26 19 23 23 10 10 10 10 6 3 3 3 3 6 3 3 3 3 3 3 0 3 3 3 0 0 0 0 0 0 0 0 0 0
35 35 35 35 39 35 26 26 19 19 16 23 16 13 6 6 6 6 6 6 6 6 6 3 3 3 3 3 3 0 0 3 0 0 0 0 0 0 0 0 0 0 0
35 32 32 39 32 29 26 19 19 16 16 16 10 6 6 3 3 3 3 6 6 6 6 6 6 6 6 3 3 0 0 0 0 0 0 0 0 0 0 0 0 0 0
32 39 35 29 32 29 23 16 13 13 13 10 10 10 6 3 3 0 3 3 6 6 6 3 6 6 6 3 3 0 0 0 0 0 0 0 0 0 0 0 0 0 0
32 29 23 29 23 16 16 13 13 10 10 10 10 10 6 3 0 0 3 3 3 3 6 6 6 3 3 3 3 0 3 3 3 0 0 0 0 0 0 0 0 0 0
29 29 23 19 16 10 13 10 10 13 10 10 10 6 6 0 0 0 3 3 3 3 3 3 6 6 3 3 3 0 0 0 3 3 0 0 0 0 0 0 0 0 0
32 26 13 13 6 6 6 10 3 3 6 3 6 6 3 0 0 0 3 3 3 3 3 3 3 3 6 3 3 0 0 0 0 3 0 0 0 0 0 0 0 0 0
23 19 13 13 6 3 6 3 0 0 6 6 3 3 0 0 3 3 3 3 3 3 3 3 3 3 3 0 3 3 0 0 0 0 0 0 0 0 0 0 0 0 0
23 19 10 10 3 3 3 3 6 6 3 3 3 3 0 0 0 3 3 3 3 3 3 3 3 3 3 0 0 0 3 3 0 0 0 0 0 0 0 0 0 0 0
16 13 13 13 6 6 10 10 10 3 3 3 3 0 0 0 0 0 0 0 0 0 0 0 0 0 0 0 0 0 0 0 0 0 0 0 0 0 0 0 0 0 0

GEFSMW_con_cape1000_180.txt.gz
Probability
71 81 81 77 74 81 84 84 84 87 81 84 65 68 65 58 58 58 58 68 61 58 81 39 58 58 52 58 39 48 42 39 48 35 23 19 13 16 42 32 23 10 19
74 87 87 81 81 84 81 77 81 87 84 77 71 71 58 52 58 58 71 65 55 61 45 77 52 52 65 61 61 77 68 32 29 42 32 23 26 32 10 29 35 23 23
71 84 84 84 84 84 81 74 81 84 81 68 65 58 65 65 52 61 68 68 58 65 65 61 61 74 61 71 77 84 65 61 48 23 29 23 23 32 13 19 29 35 42
77 81 81 81 81 84 81 81 77 77 77 74 58 48 52 48 55 74 58 65 58 65 58 61 68 71 61 74 65 42 68 65 58 52 52 32 29 26 29 19 6 19 29
74 77 77 81 81 77 71 77 81 81 71 68 65 65 48 45 45 55 65 77 68 71 68 61 68 74 71 71 68 68 68 65 65 65 42 45 61 29 35 32 35 19 23
74 77 77 81 81 74 71 65 81 81 77 71 68 65 65 65 52 65 71 71 71 68 68 74 77 71 65 71 74 68 61 65 65 65 55 58 42 39 39 32 39 32 23
71 74 71 74 71 68 65 65 71 71 74 68 65 55 68 68 61 58 68 71 45 58 68 58 71 74 74 68 71 71 71 61 65 55 55 52 45 42 35 35 29 23 23
68 65 65 68 58 61 65 58 74 74 68 65 71 71 71 61 55 68 58 61 48 48 58 65 68 68 68 58 68 61 58 55 61 42 48 52 35 35 35 29 29 26 26
65 61 65 61 61 65 71 71 74 68 68 55 71 74 65 65 55 65 65 61 65 52 55 58 61 65 58 65 61 61 58 58 52 42 42 35 32 35 23 26 32 32 26
71 61 65 71 61 71 74 68 74 74 68 65 65 55 65 65 61 55 55 55 58 55 52 52 58 52 52 55 61 52 52 52 48 52 48 52 26 26 29 32 29 29 26
68 71 65 68 61 68 68 65 71 74 71 61 68 71 65 58 58 58 55 52 58 58 55 55 55 52 42 39 39 35 42 39 35 35 32 35 45 39 29 23 19 29 29
77 74 71 68 68 58 61 65 65 65 61 68 71 65 68 61 58 48 48 45 45 55 52 45 42 39 32 35 32 26 29 32 32 26 29 26 23 35 23 26 23 26 29
81 74 74 65 71 65 58 58 61 55 61 61 65 65 61 58 55 48 45 52 45 48 39 39 35 35 29 35 29 29 32 32 32 26 23 19 23 35 26 23 23 26 6
84 77 74 71 77 74 71 61 61 61 58 58 52 58 58 58 48 42 42 35 32 35 35 35 35 26 26 23 23 29 29 26 26 26 23 19 19 26 19 16 19 19 16
74 68 71 68 74 74 71 68 65 61 58 58 58 55 58 55 42 39 42 35 29 26 32 32 29 23 26 19 26 26 23 29 29 26 16 13 10 6 6 3 13 13 13
71 77 74 74 68 71 68 68 65 58 61 55 55 52 52 45 42 35 32 29 26 26 26 26 23 23 16 3 3 6 19 23 19 19 19 13 13 3 0 0 0 0 3
65 74 74 71 71 68 65 65 61 65 58 58 52 48 45 35 29 26 26 26 26 23 26 23 19 13 10 3 3 0 6 13 16 19 16 10 3 3 10 3 0 0 0
71 71 65 65 65 71 71 71 61 65 55 55 52 42 35 29 26 26 19 16 16 19 19 16 10 10 6 3 3 0 6 13 10 10 10 10 10 6 10 10 10 10 6
77 68 68 65 68 68 74 74 65 61 58 58 52 42 35 35 32 26 16 16 16 13 13 10 6 6 3 0 0 0 6 10 10 10 10 10 10 6 3 3 10 6 6
68 65 65 65 68 68 71 68 58 55 52 48 48 39 42 39 39 29 16 10 13 13 10 3 3 3 3 3 0 0 3 10 13 13 10 6 3 3 0 3 6 6 6
68 65 61 61 65 65 68 68 55 52 48 45 45 48 39 39 35 23 16 13 10 10 3 3 3 3 3 3 3 0 3 3 3 6 10 10 3 0 0 0 3 3 3
61 61 61 61 61 61 61 55 45 42 39 39 45 39 35 29 26 19 19 13 3 3 3 3 3 3 3 3 3 0 0 0 3 6 3 3 0 0 0 0 0 0 0
55 58 58 58 48 52 52 48 39 39 42 39 35 35 29 29 23 19 16 6 6 3 3 3 3 6 3 3 3 0 0 0 0 3 3 0 0 0 0 0 0 0 0
48 48 45 48 48 39 35 35 32 39 39 39 32 32 29 19 19 10 6 6 6 3 3 3 6 6 6 6 3 3 3 0 0 0 0 0 0 0 0 0 0 0 0
42 39 42 39 35 39 35 29 29 32 35 35 29 23 16 10 16 6 6 6 6 3 6 6 6 6 6 3 3 3 3 3 3 0 0 0 0 0 0 0 0 0 0
29 32 35 35 39 32 32 29 32 32 32 29 29 19 16 6 6 6 6 3 0 0 0 0 3 3 3 0 0 0 0 0 0 0 0 0 0 0 0 0 0 0 0

GEFSMW_con_cape1000_186.txt.gz
Probability
74 81 77 81 87 84 84 90 90 87 87 87 81 71 61 77 77 74 81 81 84 84 87 77 94 84 84 84 81 84 87 90 87 81 74 71 68 71 74 68 55 45 48
74 84 87 84 87 84 87 90 90 90 87 90 90 90 84 74 81 84 87 84 81 87 65 84 87 87 77 81 81 84 84 77 71 84 74 58 48 74 29 61 65 52 52
71 84 87 87 87 84 84 84 90 87 84 84 81 84 90 87 81 87 87 84 84 81 81 81 81 81 77 81 81 81 71 71 84 74 71 45 32 52 61 55 48 58 61
81 87 90 87 81 84 84 87 90 87 84 81 84 77 71 68 71 81 90 90 77 81 84 84 81 81 74 81 74 71 77 74 68 71 71 68 65 55 42 48 32 42 58
74 84 87 84 84 81 84 81 87 87 90 84 84 84 71 71 81 81 84 84 81 81 77 81 84 77 77 77 74 74 77 74 61 68 65 65 68 45 45 23 29 39 39
74 81 84 84 81 74 77 81 87 90 90 87 87 87 81 81 74 81 77 81 84 84 81 84 81 81 81 84 77 74 74 74 71 68 61 58 55 52 42 32 35 26 42
74 77 84 84 84 77 71 77 84 87 84 81 81 81 81 77 74 77 74 81 77 84 84 81 74 74 77 74 71 74 68 65 61 61 65 68 58 58 55 32 26 32 39
68 74 77 81 84 71 74 71 87 81 84 84 77 81 81 77 77 71 77 81 74 71 74 84 84 74 71 65 68 65 68 68 65 55 58 61 58 55 45 42 39 26 16
58 74 71 71 74 77 77 74 81 84 84 84 74 74 81 74 74 74 74 77 84 58 55 61 71 74 65 65 71 71 65 68 68 58 55 61 55 48 55 52 45 23 6
58 68 71 71 77 77 77 77 77 84 81 87 81 71 81 77 77 74 71 68 71 65 58 52 58 61 68 58 61 61 61 48 52 48 55 55 48 45 48 45 42 35 26
58 61 68 77 77 77 81 84 81 77 81 84 84 84 84 77 77 74 68 61 58 61 58 52 55 61 55 58 65 55 48 39 35 39 39 39 42 35 26 35 39 39 23
65 68 68 77 74 77 77 84 77 77 74 81 84 84 84 77 68 65 65 55 55 55 55 58 52 52 48 55 45 35 35 32 35 35 35 35 29 35 32 32 29 26 23
71 77 77 81 74 74 77 74 77 74 68 71 74 81 74 74 71 68 65 65 55 52 52 55 48 42 39 35 35 35 32 32 32 35 35 35 32 32 29 29 26 23 10
87 84 81 81 77 81 81 74 71 74 71 71 74 71 71 68 68 68 71 61 52 48 48 52 45 35 32 32 32 29 29 29 29 26 32 29 32 29 32 29 29 23 13
81 81 77 81 81 84 81 77 74 74 77 74 74 74 71 68 68 65 58 55 48 42 48 42 32 32 29 23 23 26 26 26 26 26 19 19 19 13 10 10 16 13 13
77 77 81 74 74 74 74 74 71 71 81 71 71 71 71 71 71 61 55 58 55 48 39 29 26 23 10 3 0 6 16 23 23 23 19 19 10 6 3 3 3 3 10
74 77 77 77 68 68 71 74 71 71 77 74 68 68 68 65 65 55 48 48 55 48 32 29 26 19 6 3 0 0 10 19 23 19 19 10 6 6 13 3 3 3 3
77 77 74 74 71 68 68 68 71 68 68 68 68 61 55 55 55 52 42 35 42 35 35 26 23 16 6 3 0 0 3 13 6 6 10 3 6 6 6 10 10 10 6
81 77 74 71 71 71 71 68 68 68 65 58 61 52 52 48 52 52 52 45 39 35 32 19 13 13 6 3 0 0 6 10 3 3 3 3 3 3 3 3 3 10 6
77 77 68 68 68 68 68 68 68 61 58 55 55 55 55 52 48 52 52 45 35 35 29 16 16 13 10 3 0 0 3 6 3 3 3 3 3 3 0 0 3 3 3
74 74 68 68 68 68 68 68 61 55 55 55 58 58 61 58 48 39 45 45 39 35 26 16 13 10 6 3 3 0 3 3 3 3 3 3 3 0 0 0 3 3 3
65 61 61 65 68 68 65 58 58 58 55 55 55 55 58 42 35 39 45 42 32 26 19 16 10 6 6 3 3 0 0 3 3 3 3 3 3 0 0 0 0 0 0
61 58 61 61 65 65 61 55 55 52 48 48 52 48 48 48 45 39 32 39 29 19 16 16 6 6 6 3 3 3 0 0 0 3 3 3 3 0 0 0 0 0 0
55 55 55 48 52 58 58 58 52 52 48 48 48 48 45 42 39 35 26 26 19 10 13 13 10 6 6 3 3 3 0 0 0 0 3 0 0 0 0 0 0 0 0
48 52 52 45 52 52 48 52 52 52 45 39 35 35 32 29 29 26 23 19 23 6 6 6 3 3 3 3 0 0 0 0 3 3 3 3 3 0 0 0 0 0 0
45 45 45 42 42 48 52 52 48 48 48 39 39 26 26 29 23 16 10 6 3 3 0 0 0 0 0 0 0 0 0 0 0 0 3 3 3 3 0 0 0 0 0

GEFSMW_con_cape1000_192.txt.gz
Probability
52 55 65 65 55 52 39 45 45 39 39 35 32 26 23 16 10 13 13 6 10 10 6 6 10 10 6 3 3 3 3 3 3 3 0 0 0 0 0 0 0 0 0
55 61 61 61 58 61 48 48 39 39 39 39 29 16 23 19 16 16 10 10 6 3 13 3 3 3 3 6 6 3 3 3 0 0 0 0 0 0 0 0 0 0 0
58 58 55 61 61 65 58 48 45 45 45 39 29 23 16 16 13 10 10 16 13 10 10 10 6 3 3 3 3 3 3 3 3 0 3 0 0 0 0 0 0 0 0
52 48 52 61 71 68 61 58 52 48 48 42 29 23 23 19 13 13 16 16 19 13 6 10 10 3 3 6 3 3 3 3 3 3 0 0 0 0 0 0 0 0 0
42 45 52 52 61 65 58 61 61 55 55 52 26 23 23 19 26 19 23 13 13 16 16 10 10 3 6 6 3 3 3 3 3 3 0 0 0 0 0 0 0 0 0
42 45 52 52 61 68 65 61 58 52 52 52 42 32 32 26 29 26 26 13 10 13 19 19 13 10 10 10 10 3 0 0 0 0 0 0 0 0 0 0 0 0 0
48 45 52 55 61 61 58 58 58 58 55 55 48 29 23 29 26 19 19 16 10 10 13 23 10 10 10 10 6 6 10 6 3 0 0 0 0 0 0 0 0 0 0
48 42 48 55 58 55 52 55 55 55 52 45 39 42 39 32 26 19 10 10 13 10 13 10 13 10 10 13 6 10 10 10 6 3 0 0 0 0 0 0 0 0 0
42 48 55 52 58 58 61 55 48 48 52 45 42 39 45 35 29 16 16 13 10 19 23 19 16 13 10 10 6 6 10 10 6 3 3 0 0 0 0 0 0 0 0
42 52 52 55 48 52 55 52 48 42 42 45 35 39 32 32 32 26 29 19 13 23 26 23 16 16 16 10 10 6 6 6 3 3 3 3 0 0 0 0 0 0 0
45 42 52 55 48 52 52 48 45 39 39 35 42 35 39 39 26 23 29 26 23 23 23 19 16 13 10 13 6 6 6 3 3 3 3 3 3 3 3 3 3 3 3
52 55 52 52 52 52 52 48 48 45 39 35 35 39 39 29 26 29 26 26 23 23 19 16 16 13 13 10 3 3 6 3 3 3 3 3 3 3 3 3 3 3 3
42 52 45 48 55 48 48 55 48 45 39 39 32 29 26 26 23 19 23 29 23 19 16 16 13 13 3 3 0 0 0 0 0 0 3 3 3 3 3 3 3 3 3
45 42 42 45 48 52 48 52 48 45 45 35 29 29 26 23 23 23 26 29 16 16 19 16 16 13 10 6 0 0 0 0 0 0 0 0 0 0 0 0 0 0 3
48 55 48 45 48 52 48 52 42 42 42 42 35 32 26 26 23 23 23 19 19 16 13 13 6 6 3 3 3 0 0 0 0 0 0 0 0 0 0 0 0 0 0
48 55 52 52 52 55 52 45 39 35 42 29 26 26 26 23 26 26 16 16 19 16 16 16 10 10 6 6 3 0 0 0 0 0 0 0 0 0 0 0 0 0 0
45 48 52 58 55 52 48 45 39 32 32 32 29 29 26 23 26 26 19 16 16 13 16 13 10 6 6 0 0 0 0 0 0 0 0 3 3 0 0 0 0 0 0
45 42 48 52 48 48 45 39 35 35 35 32 29 26 26 23 26 19 19 19 16 13 13 13 6 6 6 6 0 0 0 0 0 0 0 0 0 3 0 0 0 0 0
45 45 48 48 55 48 45 39 35 39 35 29 26 23 29 26 26 23 19 13 19 16 13 13 6 6 6 6 0 0 0 0 0 0 0 0 0 0 0 0 0 0 0
42 45 45 48 48 45 39 39 35 35 39 32 29 29 19 19 13 19 16 16 13 16 16 13 10 6 6 3 3 0 3 3 3 3 0 0 0 0 0 0 0 0 0
45 45 48 45 45 45 42 39 35 39 35 35 32 29 16 16 16 13 6 3 6 13 10 10 6 3 3 3 3 0 3 3 3 3 3 3 0 0 0 0 0 0 0
52 48 48 42 39 42 39 35 32 32 26 19 23 19 13 19 19 16 10 6 6 6 6 6 3 3 3 3 3 3 0 0 3 3 3 3 3 0 0 0 0 0 0
48 48 42 35 35 29 32 32 29 32 19 16 16 13 13 16 13 10 10 10 6 6 6 6 6 3 3 3 0 0 0 0 0 0 0 0 0 0 0 0 0 0 0
42 45 35 32 32 32 29 32 26 23 16 16 16 13 13 13 6 6 10 6 6 6 3 3 6 3 0 0 0 0 0 0 0 0 0 0 0 0 0 0 0 0 0
26 29 29 26 23 23 26 26 23 19 19 19 19 19 16 6 6 3 0 0 0 6 3 0 0 0 0 0 0 0 0 0 0 0 0 0 0 0 0 0 0 0 0
19 16 16 19 19 19 19 16 13 13 13 13 13 13 6 0 0 3 0 0 0 0 0 0 0 0 0 0 0 0 0 0 0 0 0 0 0 0 0 0 0 0 0

GEFSMW_con_cape1000_198.txt.gz
Probability
16 19 16 16 16 13 10 13 13 13 10 10 10 3 6 10 6 3 0 0 0 0 0 0 0 0 0 0 0 0 3 0 0 0 0 0 0 0 0 0 0 0 0
13 19 19 19 19 16 13 10 13 13 10 10 10 3 0 0 3 3 3 0 3 0 3 0 0 0 0 0 0 0 3 3 0 3 3 3 0 0 0 0 0 0 0
13 19 13 23 23 19 19 26 16 13 10 10 6 6 3 3 6 6 6 6 3 6 10 3 0 0 0 0 0 0 0 3 3 0 3 3 0 0 0 0 0 0 0
10 10 16 23 23 26 29 23 19 13 13 10 6 6 6 3 3 6 6 6 13 10 10 6 3 3 0 0 0 3 0 3 3 0 0 0 0 0 0 0 0 0 0
23 26 23 32 26 35 39 23 19 16 16 13 10 10 6 3 3 6 10 6 6 6 6 6 3 0 0 0 0 0 0 0 0 0 0 0 0 0 0 0 0 0 0
19 26 32 35 32 42 39 29 26 26 23 19 13 10 13 6 3 3 6 6 6 6 6 6 6 6 3 3 6 0 0 0 0 0 0 0 0 0 0 0 0 0 0
19 29 35 39 35 39 39 32 32 29 23 23 23 19 13 3 6 10 13 6 6 6 6 6 6 6 6 6 6 3 3 3 0 0 0 0 0 0 0 0 0 0 0
26 26 26 32 42 39 32 32 26 23 26 23 23 19 16 6 6 6 6 6 6 6 6 6 6 6 6 6 10 6 3 3 6 6 3 3 0 0 0 0 0 0 3
26 23 23 29 39 35 35 39 39 26 26 23 29 19 16 16 13 10 6 6 6 6 6 6 10 6 6 6 10 6 6 6 10 10 10 6 6 0 0 0 0 3 3
26 23 26 29 26 29 32 29 35 35 29 29 26 29 19 16 16 16 10 10 10 10 13 13 6 6 6 6 0 0 0 0 3 3 3 3 3 0 0 3 3 3 3
29 19 23 23 26 29 35 32 35 35 35 35 32 29 23 19 16 16 16 10 6 6 10 6 3 3 3 6 3 0 0 0 0 3 0 3 3 0 0 0 0 0 3
35 29 23 29 26 32 32 29 35 35 35 26 23 23 16 13 13 13 13 10 6 10 10 13 6 6 10 6 6 0 0 0 0 3 0 3 3 0 0 0 0 0 0
35 29 29 32 35 39 35 29 26 29 23 16 16 16 13 16 13 10 10 6 6 10 6 10 10 6 6 3 3 0 0 0 0 3 3 3 0 0 0 0 0 0 0
35 35 32 29 35 32 32 29 23 26 13 16 13 13 10 10 10 13 10 10 6 6 3 6 10 6 6 3 0 0 0 0 0 0 0 0 0 0 0 0 0 0 0
32 32 32 35 35 35 29 26 23 19 16 16 16 16 6 6 10 6 6 6 6 10 6 6 6 13 10 6 3 3 0 3 0 0 0 0 0 0 0 0 0 0 0
32 29 32 39 39 29 29 26 19 23 16 16 13 10 10 10 10 6 6 6 6 6 10 10 10 10 6 3 3 3 3 3 0 0 0 0 0 0 0 0 0 0 0
26 23 23 32 32 32 29 29 32 23 19 19 16 10 10 10 6 13 6 6 6 6 6 10 10 6 6 3 0 0 3 0 0 0 0 0 0 0 0 0 0 0 0
26 26 26 32 29 26 26 23 23 19 19 16 19 16 13 10 6 6 3 3 0 3 6 6 6 10 6 3 0 0 0 0 0 0 0 0 0 0 0 0 0 0 0
26 26 32 29 29 26 29 19 23 23 16 16 16 10 10 10 3 3 0 0 0 0 0 6 6 6 6 0 0 0 0 0 3 3 3 0 0 0 0 0 0 0 0
32 26 29 26 29 26 19 23 23 16 16 13 13 13 3 3 3 3 3 0 0 0 3 6 6 6 6 0 0 0 0 3 3 3 3 3 0 0 0 0 0 0 0
32 29 32 26 19 23 23 19 26 23 16 16 10 6 6 6 6 6 6 6 3 3 3 3 3 3 0 0 0 0 0 0 0 3 3 0 0 0 0 0 0 0 0
29 29 26 23 19 19 19 19 19 16 13 6 6 3 3 3 6 10 6 0 0 3 3 3 0 0 0 0 0 0 0 0 0 0 0 0 0 0 0 0 0 0 0
23 23 26 19 19 23 19 16 13 10 6 6 3 3 3 3 6 6 6 3 0 0 0 0 0 0 0 0 0 0 0 0 0 0 0 0 0 0 0 0 0 0 0
23 26 19 19 16 16 13 13 6 6 6 6 3 3 3 6 6 6 3 3 3 0 0 0 0 0 0 0 0 0 0 0 0 0 0 0 0 0 0 0 0 0 0
13 19 23 16 16 16 10 10 6 6 6 3 3 3 6 6 6 6 3 0 0 0 0 0 0 0 0 0 0 0 0 0 0 0 0 0 0 0 0 0 0 0 0
10 10 13 13 10 10 13 10 6 6 6 6 6 6 6 6 3 0 0 0 0 0 0 0 0 0 0 0 0 0 0 0 0 0 0 0 0 0 0 0 0 0 0

GEFSMW_con_cape1000_204.txt.gz
Probability
45 58 58 52 58 65 74 68 71 77 84 77 68 74 71 71 61 65 65 65 61 68 74 45 71 81 65 65 52 58 52 45 45 29 23 23 23 26 42 32 26 23 35
45 58 55 55 61 68 71 77 77 74 74 81 74 74 74 65 68 61 68 65 58 61 45 68 55 61 81 87 81 84 61 35 42 42 32 23 26 39 16 29 32 23 26
42 58 55 55 55 61 68 65 77 77 77 77 71 68 71 74 52 68 74 58 55 55 58 68 52 65 48 71 87 90 68 58 45 42 39 32 39 23 19 26 29 39 35
39 61 74 65 58 58 61 71 77 81 74 77 65 58 68 61 68 71 71 68 52 61 58 55 74 77 55 71 71 55 68 71 55 55 48 39 32 35 26 29 23 29 35
45 55 71 68 61 55 61 71 77 81 77 81 81 77 55 58 61 61 68 71 58 61 48 52 65 74 65 74 71 68 68 65 71 65 55 42 39 32 42 29 35 32 26
39 55 58 74 65 58 61 68 74 81 81 77 71 71 61 61 61 61 61 65 68 65 52 52 65 68 65 74 74 77 71 71 71 71 55 48 42 35 42 35 39 35 29
45 61 68 68 71 71 71 71 74 77 74 74 71 68 65 58 58 58 55 61 45 58 58 58 77 74 74 71 71 74 68 65 74 71 65 58 45 35 45 45 32 32 23
48 58 68 74 71 65 68 68 77 81 74 71 68 68 65 55 58 65 61 58 45 48 61 68 74 71 65 61 74 61 58 61 55 48 52 55 42 35 35 45 42 32 29
58 52 68 77 68 68 74 71 77 77 68 71 68 65 61 65 65 71 65 58 61 45 52 55 58 61 58 61 65 65 65 61 48 48 52 52 42 39 32 32 35 29 16
61 65 71 74 71 71 71 65 77 77 71 68 65 65 61 65 71 71 74 74 65 58 55 52 58 58 58 58 61 55 55 58 55 48 45 48 42 45 39 35 39 35 29
61 65 77 77 71 68 65 68 74 74 71 65 65 61 61 65 68 71 65 61 48 52 52 55 58 52 55 55 55 45 42 42 39 39 35 42 42 39 32 39 32 32 29
61 65 71 74 74 65 65 65 68 71 68 65 65 61 65 61 55 55 48 55 52 42 42 42 39 35 39 45 42 48 42 35 32 29 35 39 32 35 32 29 26 26 29
71 68 74 81 71 74 71 68 65 65 58 61 52 61 58 58 61 58 55 52 48 45 39 35 32 35 35 39 39 32 32 32 32 32 32 35 35 35 32 29 26 23 23
77 74 81 81 81 74 71 68 68 65 52 52 55 55 55 55 61 48 52 48 45 42 35 35 32 29 26 23 23 23 26 32 32 26 26 29 23 23 23 23 23 23 23
74 71 77 81 84 77 77 68 65 58 61 58 52 52 58 55 48 48 52 48 35 29 35 29 26 29 26 16 23 23 16 29 29 29 23 19 19 16 16 13 16 16 16
71 77 74 81 81 77 71 68 65 65 61 61 61 55 58 52 52 52 45 42 42 42 35 35 29 23 10 10 6 13 16 26 26 23 19 19 13 10 0 0 0 0 13
71 68 74 74 74 68 68 68 68 65 61 61 61 61 55 48 45 42 42 39 39 39 39 29 29 23 10 10 3 0 13 16 19 16 19 13 10 13 13 3 0 0 0
61 65 61 65 61 61 65 65 61 55 55 58 61 61 52 48 45 45 45 39 39 39 39 39 29 19 10 10 3 0 6 13 10 10 10 16 13 10 10 10 3 3 3
58 55 61 58 58 55 55 55 48 52 52 55 58 55 48 48 48 45 39 35 35 35 35 26 29 19 10 3 0 0 13 13 10 10 10 10 10 3 0 0 3 3 3
52 55 58 55 55 55 55 52 45 52 48 48 52 48 42 42 39 42 45 39 35 32 29 26 23 23 13 3 3 0 13 10 10 10 10 3 3 3 0 0 3 3 0
52 55 55 55 55 55 55 55 55 52 48 48 45 42 42 42 39 32 39 32 29 23 23 19 23 16 13 6 3 0 10 6 13 10 6 6 3 0 0 0 0 0 0
52 48 55 55 55 52 55 58 55 52 48 42 39 39 39 32 29 29 29 19 23 23 19 19 16 13 10 6 3 0 0 0 3 3 3 3 0 0 0 0 0 0 0
52 52 55 52 52 52 48 52 39 35 39 42 42 42 39 35 26 29 32 29 29 19 16 13 10 10 10 10 3 0 0 0 0 3 3 0 0 0 0 0 0 0 0
45 45 42 48 48 42 35 39 32 29 32 32 35 32 26 23 23 23 23 16 16 16 16 10 13 10 10 10 3 3 0 0 0 0 0 0 0 0 0 0 0 0 0
45 42 45 48 39 35 32 32 32 32 32 32 32 19 19 19 19 16 16 13 16 13 13 13 13 10 10 3 3 3 3 3 0 0 0 0 0 0 0 0 0 0 0
35 45 42 48 35 32 32 29 32 32 32 26 19 13 13 13 13 10 10 6 6 0 0 3 3 3 3 0 0 0 0 0 0 0 0 0 0 0 0 0 0 0 0

GEFSMW_con_cape1000_210.txt.gz
Probability
55 58 52 55 71 87 87 94 94 97 97 94 94 90 87 84 90 90 87 84 74 87 90 84 90 94 97 90 84 84 84 81 84 71 65 55 48 45 55 45 39 42 52
61 58 55 55 71 87 90 94 94 94 94 94 97 90 90 90 90 90 87 87 81 77 74 87 87 90 87 87 90 87 84 74 77 68 55 55 58 61 13 42 55 32 32
61 58 55 65 74 77 84 90 94 94 94 94 90 87 87 81 77 81 87 74 74 74 84 77 81 84 81 84 84 84 84 77 71 74 68 52 48 39 45 32 32 32 32
61 58 65 71 65 81 84 90 94 94 90 90 90 81 84 77 81 81 81 81 77 71 74 74 81 87 77 77 74 74 81 81 74 84 77 61 58 45 29 32 23 32 39
55 58 65 74 71 71 81 87 90 94 94 94 94 90 84 87 77 81 81 84 81 84 77 81 84 84 77 74 74 81 74 81 77 81 71 61 65 48 42 19 16 26 26
58 58 68 77 74 65 77 84 90 90 94 94 90 90 84 87 81 81 84 81 84 81 81 81 74 74 71 74 74 77 74 81 74 71 68 71 65 55 48 26 19 26 26
52 58 74 81 84 77 84 81 90 90 90 90 84 90 84 84 77 77 81 81 77 84 81 74 74 71 68 68 71 71 71 71 71 71 65 61 58 61 45 32 23 23 26
45 55 74 77 81 87 84 84 87 90 90 84 90 90 84 74 77 81 81 81 77 74 74 71 74 71 68 58 68 65 71 68 68 58 58 61 58 58 42 39 29 29 23
52 58 74 81 81 84 84 84 87 87 84 81 87 90 87 84 81 81 81 71 84 65 68 68 68 65 65 65 58 65 61 61 65 65 55 55 55 42 42 39 32 23 13
52 55 65 74 84 77 84 81 84 84 84 84 84 77 84 87 81 81 74 74 74 68 61 68 71 68 68 65 65 68 65 58 61 61 52 52 39 35 42 32 35 29 23
48 52 71 71 74 77 77 77 81 81 77 77 87 90 81 77 81 81 71 71 71 71 61 55 58 65 65 65 65 52 58 55 55 48 48 45 39 42 32 32 32 26 26
52 58 71 74 77 74 77 74 81 77 77 81 87 87 87 77 74 71 68 74 68 68 58 52 48 48 58 58 61 52 48 45 48 48 45 45 35 42 35 35 29 29 26
68 65 61 74 74 71 77 74 77 71 71 77 77 84 77 81 77 68 71 71 68 65 55 48 45 45 45 48 48 42 39 35 42 35 39 35 35 32 35 35 32 29 19
77 71 81 84 84 81 81 74 71 74 71 74 77 77 77 77 74 61 65 58 61 55 45 45 45 45 39 29 29 29 32 32 35 32 32 26 26 23 19 19 19 19 23
74 81 87 84 84 77 77 74 71 71 77 81 77 74 77 71 71 65 55 55 55 45 42 42 42 39 32 23 23 26 16 26 23 23 19 13 13 13 16 10 13 13 13
71 74 81 74 77 81 77 77 71 71 71 71 74 71 68 68 71 55 55 58 55 55 45 42 39 35 19 10 10 13 13 16 16 16 23 13 10 10 3 3 3 6 6
68 71 65 68 77 77 77 71 71 68 68 68 68 68 68 68 61 55 52 52 52 52 45 42 39 29 23 3 3 3 10 16 16 16 13 6 6 6 6 3 0 0 0
65 61 65 65 71 71 71 68 61 65 65 65 65 68 65 65 65 61 58 58 58 45 45 42 29 26 16 3 3 0 6 13 10 10 13 13 10 6 6 6 3 3 3
58 65 61 61 65 65 61 55 58 68 65 65 61 58 58 55 52 52 58 52 52 42 39 32 26 26 10 3 0 0 10 13 6 10 3 10 10 6 3 3 6 3 3
55 58 55 55 65 65 58 55 58 58 55 55 55 55 55 52 52 52 48 45 48 42 35 29 23 23 10 3 0 0 6 10 6 3 6 3 3 3 3 3 3 3 3
58 58 58 55 55 61 61 58 58 52 52 52 55 52 52 45 48 48 48 45 39 35 35 23 23 23 13 6 3 0 3 3 6 3 6 6 3 0 0 0 3 3 3
55 58 55 58 58 61 61 58 48 52 45 48 48 45 45 39 35 39 45 35 32 32 29 26 23 19 13 6 3 0 0 3 6 6 3 3 3 0 0 0 0 0 0
55 55 55 58 58 55 58 58 55 52 48 48 52 45 42 42 35 39 32 26 26 19 23 26 26 19 16 6 6 0 0 0 0 3 3 0 0 0 0 0 0 0 0
52 48 52 55 52 55 48 52 52 48 48 52 48 45 42 35 32 29 26 23 19 23 19 19 19 19 13 6 6 3 0 0 0 0 0 0 0 0 0 0 0 0 0
45 48 58 55 52 55 52 48 52 48 45 42 42 39 35 32 32 26 16 16 19 16 19 19 19 16 13 10 3 6 3 3 3 3 3 0 0 0 0 0 0 0 0
48 55 48 48 52 52 45 45 52 52 48 39 39 32 29 29 23 19 16 3 10 10 10 10 10 6 6 0 0 0 3 3 3 3 3 3 0 0 0 0 0 0 0

GEFSMW_con_cape1000_216.txt.gz
Probability
13 32 42 48 45 45 45 48 42 42 39 35 35 32 29 23 13 13 13 13 13 13 10 6 3 6 10 6 6 6 6 6 3 0 0 0 0 0 0 0 0 0 0
19 29 45 48 45 48 48 45 42 35 39 45 42 39 29 26 23 13 10 13 13 10 13 6 6 6 10 10 6 3 3 3 0 0 0 0 0 0 0 0 0 0 0
16 29 45 48 48 48 48 48 48 48 48 45 45 39 29 32 23 16 16 19 13 10 10 10 6 6 6 6 6 3 3 3 0 0 0 0 0 0 0 0 0 0 3
13 19 35 52 52 55 52 48 55 55 52 45 42 35 32 32 26 23 19 19 13 16 6 3 3 3 0 0 3 10 6 3 3 0 0 0 0 0 0 0 0 0 0
13 29 39 45 55 58 61 55 55 55 52 55 45 39 29 26 29 26 23 19 19 16 16 6 10 6 3 0 3 6 10 3 3 3 0 0 0 0 0 0 0 0 0
26 32 42 45 58 55 58 55 58 55 58 52 48 45 35 35 35 29 13 19 26 26 19 16 16 13 10 6 3 6 13 13 10 6 6 0 0 0 0 0 0 0 0
29 32 48 48 55 55 61 58 61 58 55 52 42 42 39 39 35 35 32 23 26 26 23 19 19 16 16 16 13 16 16 13 10 10 6 6 0 0 0 0 0 0 0
26 35 45 52 52 52 55 55 48 52 48 48 42 39 42 48 42 35 35 32 26 26 19 13 16 19 23 19 16 23 19 19 13 13 6 6 6 0 0 0 0 0 0
35 32 35 45 48 52 48 48 52 55 48 48 45 42 39 42 42 42 32 26 26 29 19 16 16 13 19 23 16 13 16 16 13 13 13 3 3 0 0 0 0 0 0
42 39 39 42 48 45 45 52 55 55 48 45 45 42 42 45 45 39 32 26 23 23 19 16 13 16 16 10 6 6 3 6 6 6 6 3 3 0 0 0 0 0 0
39 35 35 42 42 48 45 45 52 52 48 45 39 35 35 39 29 26 29 19 19 19 13 13 16 13 13 10 10 10 10 10 6 6 3 3 6 0 0 0 0 0 0
35 35 32 48 52 45 48 52 55 58 52 42 39 39 39 35 35 26 23 19 19 19 19 13 16 16 6 6 10 10 10 6 3 3 0 0 0 3 3 3 3 0 0
29 35 29 42 48 48 48 52 52 58 52 48 42 42 39 32 29 29 23 23 19 19 19 19 19 10 3 6 6 6 6 3 0 0 0 0 3 3 3 3 3 3 3
26 26 35 39 42 42 52 55 55 55 52 45 42 42 39 35 35 26 23 23 26 19 19 19 16 13 10 10 10 6 3 0 0 0 0 3 3 3 3 3 3 3 3
29 26 39 39 39 42 45 48 52 45 45 42 39 39 29 29 32 29 29 23 26 29 19 23 23 16 19 16 13 6 6 6 3 3 3 3 3 3 3 3 3 3 3
23 35 35 39 35 35 42 42 42 42 35 35 39 29 26 26 29 26 23 23 23 26 23 23 19 19 16 10 6 6 3 0 0 0 3 3 3 3 3 3 3 3 3
29 42 35 42 42 39 42 39 32 29 29 26 26 29 29 26 26 19 19 19 16 19 19 16 16 13 13 3 3 3 0 3 3 3 3 3 3 3 3 3 3 3 0
26 29 35 45 42 42 42 35 26 29 26 26 26 26 26 26 26 23 26 26 19 19 16 13 13 10 6 3 0 0 0 0 0 3 3 3 3 3 3 3 3 3 3
32 32 29 32 35 32 35 32 32 29 29 29 29 26 23 23 23 19 23 23 19 19 13 6 6 10 6 0 0 0 0 0 0 0 0 3 3 3 0 3 3 3 3
19 29 23 29 32 35 35 35 32 32 29 32 29 26 26 23 19 19 16 16 19 13 10 6 6 10 6 6 0 0 0 0 0 0 0 0 0 3 0 0 3 3 3
23 19 19 26 32 32 32 29 35 39 39 32 29 23 19 19 13 16 13 10 13 16 10 6 6 3 6 6 0 0 0 3 3 3 3 3 0 0 0 0 0 3 3
23 16 16 19 26 29 29 32 35 35 32 29 29 23 16 16 13 13 10 10 10 13 13 13 6 10 6 6 0 0 0 0 3 3 3 3 0 0 0 0 0 0 0
13 6 16 16 23 23 29 29 26 26 23 26 26 23 23 16 16 10 10 10 6 13 10 13 10 10 10 6 3 0 0 0 0 3 3 0 0 0 0 0 0 0 0
3 3 10 16 23 19 23 23 16 16 19 23 23 23 23 19 16 13 13 10 10 10 10 10 10 10 10 10 6 3 0 0 0 0 0 0 0 0 0 0 0 0 0
10 6 10 10 13 19 13 16 13 23 23 23 23 23 23 19 16 13 6 6 10 6 6 10 10 10 10 10 3 6 3 0 0 0 0 0 0 0 0 0 0 0 0
3 6 10 13 13 13 10 10 16 16 23 26 26 23 23 16 13 6 6 6 6 6 3 3 6 10 6 3 0 0 0 0 0 0 0 0 0 0 0 0 0 0 0

GEFSMW_con_cape1000_222.txt.gz
Probability
6 6 6 6 10 6 6 6 10 6 3 3 3 6 3 6 6 3 6 6 6 10 3 3 0 0 0 0 0 0 0 0 0 0 0 0 0 0 0 0 3 6 3
6 6 6 10 10 16 10 10 13 13 6 6 6 6 6 10 6 6 3 3 6 6 10 6 0 0 0 0 0 0 0 0 0 0 0 0 0 0 0 0 0 0 3
3 3 13 16 16 13 16 19 13 13 13 10 10 10 6 6 6 6 6 6 10 6 6 6 3 0 0 0 0 0 0 0 0 0 0 0 0 0 0 0 0 0 0
6 6 10 10 13 19 19 19 19 16 16 16 19 16 13 13 10 6 6 10 6 10 6 6 3 3 0 0 0 0 0 0 0 0 0 0 0 0 0 0 0 0 0
6 6 10 10 16 26 23 26 16 16 16 16 16 16 13 10 6 6 3 3 6 3 6 3 3 3 3 3 3 0 0 0 0 0 0 0 0 0 0 0 0 0 3
6 6 13 16 19 23 32 26 23 29 19 23 23 16 16 13 13 6 6 3 3 3 10 6 3 3 0 0 3 3 0 0 3 3 3 3 0 0 0 0 0 0 3
6 0 16 23 26 32 32 29 26 29 19 26 26 23 16 13 13 10 3 6 3 10 10 13 10 10 6 6 3 6 10 6 3 3 3 6 6 0 0 0 0 0 0
3 3 10 19 23 29 32 32 26 16 19 26 29 23 19 13 16 16 10 10 10 10 10 6 6 13 13 13 6 3 6 3 3 3 3 0 0 0 0 0 0 0 0
13 19 19 19 23 35 29 26 29 23 26 29 32 32 26 19 19 16 16 16 13 23 13 10 13 6 6 3 3 10 10 6 3 3 3 0 0 0 0 0 0 3 6
16 19 23 23 23 23 26 32 35 29 23 23 29 29 26 23 19 19 16 19 13 13 13 19 10 6 6 6 10 6 6 6 3 3 0 0 0 0 0 0 0 0 3
16 16 16 29 23 26 26 29 29 29 23 23 23 26 23 19 16 19 23 23 16 16 16 16 13 13 10 10 10 6 3 3 0 0 0 0 0 0 0 0 0 0 0
13 16 13 23 23 32 26 29 32 29 26 23 23 19 16 23 19 23 26 23 19 16 16 16 13 13 13 10 3 3 3 3 3 3 0 0 0 0 0 3 3 3 0
23 19 19 19 29 26 29 29 32 23 23 23 23 23 23 13 16 16 16 13 13 10 10 10 13 13 6 3 0 0 3 3 3 3 3 0 0 3 3 3 3 3 3
23 26 23 19 19 23 29 29 32 23 19 16 16 16 16 16 10 13 10 6 13 13 10 6 3 0 0 0 3 3 3 6 3 3 3 0 0 0 3 3 3 3 3
23 26 23 16 19 19 29 26 29 19 16 16 13 13 10 10 13 10 6 6 13 13 6 6 3 0 0 0 0 3 3 6 3 6 6 0 0 0 0 3 3 3 3
19 19 19 19 23 26 26 26 26 19 19 13 13 13 6 6 6 3 6 6 3 3 3 6 10 6 10 3 0 0 6 6 6 6 0 0 0 0 0 0 0 0 3
16 19 19 19 16 19 23 19 23 16 19 19 16 16 13 13 10 10 3 3 3 3 3 3 6 6 6 0 0 0 0 6 6 3 3 3 3 0 3 0 0 0 0
19 16 16 13 13 13 16 16 16 16 23 23 19 13 13 19 16 10 10 3 0 0 3 3 3 6 3 0 0 0 0 0 3 3 3 3 3 3 3 3 3 3 3
16 10 13 10 6 13 13 16 16 13 19 23 19 16 16 19 16 13 13 10 3 3 3 0 3 6 6 3 0 0 0 0 0 0 0 0 3 0 0 0 3 3 3
16 13 13 10 10 13 13 19 19 13 16 19 19 19 16 19 16 13 13 10 6 6 6 6 3 3 6 3 0 0 0 0 0 0 0 0 0 0 0 0 0 3 3
10 16 13 13 13 13 19 16 19 16 19 19 19 19 16 13 16 13 13 6 3 6 6 6 3 3 3 0 0 0 0 0 0 0 0 3 0 0 0 0 0 0 0
3 6 6 10 10 10 13 16 16 10 13 13 19 16 13 10 13 10 10 6 6 6 6 6 3 3 0 0 0 0 0 0 0 0 3 3 0 0 0 0 0 0 0
3 3 6 10 10 13 13 16 16 16 13 16 16 19 23 13 13 10 6 6 10 10 10 10 10 6 0 0 0 0 0 0 0 0 0 0 0 0 0 0 0 0 0
3 6 6 6 6 6 10 13 13 16 13 13 13 16 16 19 16 13 10 10 10 10 10 10 10 6 3 0 0 0 0 0 0 0 0 0 0 0 0 0 0 0 0
6 3 6 6 3 13 13 10 6 13 6 6 13 16 16 16 19 13 13 13 10 10 10 10 10 3 3 3 0 0 0 3 0 0 0 0 0 0 0 0 0 0 0
10 6 3 3 0 6 6 6 3 3 10 10 10 10 16 16 16 13 13 0 3 0 0 3 3 3 3 3 0 0 0 0 0 0 0 3 3 3 0 0 0 0 0

GEFSMW_con_cape1000_228.txt.gz
Probability
29 29 32 32 48 71 81 81 87 87 84 71 74 77 71 74 71 71 71 77 77 71 61 58 65 61 58 71 45 48 48 42 52 35 39 26 23 29 45 42 35 26 29
35 35 39 39 45 68 81 81 81 81 84 81 81 81 81 65 61 65 74 68 58 61 42 65 55 68 68 68 68 65 42 35 48 48 42 32 32 45 10 35 29 23 32
32 35 45 42 52 61 61 58 81 84 84 84 84 84 84 71 58 71 68 61 58 52 55 52 58 58 55 65 74 68 55 48 58 45 39 29 26 29 23 32 23 35 29
35 39 52 52 48 55 58 68 81 81 84 81 77 74 74 68 68 74 71 68 61 58 45 52 52 55 52 71 68 55 65 68 65 52 58 45 26 26 26 29 23 26 35
32 32 45 52 52 52 55 68 77 77 84 84 81 81 71 74 74 77 71 71 61 58 48 58 58 65 61 65 65 61 61 65 58 48 48 52 52 29 39 26 29 26 19
35 42 48 58 65 55 55 68 74 77 81 81 74 77 77 77 81 77 71 65 65 65 61 58 65 71 68 61 61 65 61 65 65 52 52 45 52 48 32 39 39 26 32
52 52 61 65 71 58 61 68 71 77 77 77 77 77 77 74 81 74 74 65 52 58 68 58 77 71 68 68 68 65 58 65 65 61 58 45 48 39 42 32 32 29 32
42 39 61 68 71 58 61 68 71 77 77 71 77 74 74 65 65 65 58 68 55 48 65 65 71 65 61 58 68 65 65 61 55 52 55 55 42 35 29 29 29 26 26
48 48 52 58 68 65 68 68 71 77 77 71 74 74 71 71 61 61 58 52 55 45 58 58 61 61 55 58 55 55 52 55 48 45 45 45 35 29 26 19 29 26 13
48 48 48 48 55 65 71 68 74 74 74 77 71 65 68 65 58 58 61 55 58 55 58 58 61 65 61 52 55 48 52 48 52 52 48 42 29 29 26 29 23 26 19
45 55 58 58 55 58 68 74 74 77 71 65 65 61 65 61 61 58 55 58 58 58 58 61 55 45 45 48 52 52 48 45 48 42 39 42 42 39 32 26 19 23 23
45 48 52 55 39 32 58 68 71 68 65 58 58 55 55 45 55 58 52 48 55 55 55 52 48 45 45 48 48 48 48 45 45 42 39 39 32 39 32 26 23 23 23
55 48 48 48 45 45 55 61 61 68 61 58 58 58 52 48 48 52 52 48 48 52 45 42 42 42 45 45 45 45 42 42 35 35 32 32 35 35 35 26 19 19 13
55 52 55 61 55 61 65 61 61 58 55 52 52 55 48 45 42 48 42 42 42 48 48 42 39 39 35 42 42 45 45 32 29 29 29 26 26 29 23 23 23 19 16
61 61 68 61 61 58 58 61 58 58 52 52 52 45 45 48 42 42 39 35 35 32 35 32 32 26 26 26 35 39 35 32 29 29 26 23 23 13 13 13 16 16 10
58 55 58 58 58 61 58 61 58 52 55 48 42 45 42 42 39 39 32 32 35 35 35 26 19 23 19 10 13 19 26 29 29 26 23 16 13 10 0 0 0 0 10
55 61 55 58 61 58 55 58 58 55 48 42 48 42 42 39 39 32 29 29 32 35 32 26 19 19 13 6 3 0 19 23 26 23 19 13 10 13 13 0 0 0 0
48 52 55 52 55 55 55 55 52 48 45 42 45 42 42 42 39 32 32 35 32 32 32 26 23 19 10 3 0 0 13 19 19 19 19 16 13 13 13 13 6 6 3
52 52 45 45 45 48 48 52 48 52 48 45 42 39 39 39 35 35 32 35 32 32 29 19 16 16 13 3 0 0 13 16 16 16 16 16 16 6 6 6 10 10 6
48 48 45 42 45 45 45 48 48 48 48 45 42 42 39 35 32 35 39 32 32 29 19 16 16 16 13 3 0 0 10 10 16 16 16 6 6 6 0 6 10 6 10
52 45 45 48 39 42 39 45 48 48 42 42 42 39 35 29 29 35 32 29 29 26 16 16 16 16 13 6 0 0 10 10 10 13 13 6 3 0 0 0 6 6 6
48 42 42 35 35 42 42 42 42 39 35 42 35 35 32 29 26 29 29 29 26 26 19 16 16 13 13 10 0 0 0 6 10 10 3 3 0 0 0 0 0 0 0
45 48 42 35 29 35 35 32 35 32 32 35 32 32 32 35 29 32 32 29 32 29 16 16 16 13 13 13 0 0 0 0 6 6 3 0 0 0 0 0 0 0 0
42 42 32 29 26 29 29 29 29 26 26 35 29 32 32 32 29 32 32 29 32 29 26 19 16 13 13 13 10 0 0 0 0 3 0 0 0 0 0 0 0 0 3
39 45 35 32 26 26 23 19 26 26 19 23 26 23 26 23 29 23 26 32 29 26 26 19 19 16 13 13 10 10 6 6 3 3 3 6 6 6 6 3 3 3 3
42 39 35 26 23 19 26 23 26 23 19 16 19 26 19 26 29 19 26 13 16 13 6 10 10 16 13 10 0 0 0 0 0 0 6 10 10 10 6 3 3 3 3

GEFSMW_con_cape1000_234.txt.gz
Probability
32 35 39 39 61 87 94 94 94 94 94 94 87 87 87 90 87 90 94 77 77 77 87 74 84 84 87 87 74 77 68 71 65 61 61 68 58 61 58 58 55 39 48
35 35 35 42 61 84 90 94 94 94 97 97 94 87 90 87 84 81 90 81 81 74 68 81 74 71 74 77 84 84 77 71 71 61 55 58 42 45 29 45 58 42 48
39 45 52 61 65 71 90 81 94 94 87 87 87 94 94 90 90 90 94 87 81 74 81 71 68 74 74 74 81 84 74 68 58 52 58 45 39 42 45 35 35 45 48
39 52 65 61 68 74 74 94 94 94 90 90 84 84 87 90 94 94 90 84 77 71 68 77 71 77 77 81 77 77 77 74 55 61 65 52 52 42 29 39 42 45 42
32 55 58 65 65 65 77 87 94 87 87 87 87 90 90 94 90 87 87 87 84 81 74 74 77 84 81 77 81 77 77 74 68 61 61 58 58 55 48 32 35 42 42
39 55 55 68 65 65 77 74 84 84 87 87 90 87 87 94 87 87 87 90 87 84 84 84 84 84 81 77 81 81 74 77 77 68 65 68 55 58 55 39 42 39 39
35 55 58 65 71 71 68 77 84 84 84 84 84 87 87 87 84 87 90 90 84 81 84 77 81 84 81 81 81 81 77 74 71 71 74 65 65 55 55 48 39 32 32
48 45 65 71 74 68 74 77 81 81 81 84 87 87 84 81 84 84 84 84 81 81 81 81 77 77 77 74 81 77 77 77 74 71 71 74 71 58 58 48 35 29 26
42 55 61 68 65 65 71 74 84 81 81 81 87 87 90 87 84 87 81 81 81 77 81 81 81 77 74 77 84 77 81 81 74 68 61 61 61 55 52 52 42 32 26
48 65 68 65 55 52 71 74 84 81 74 74 81 77 84 84 87 81 87 81 81 81 74 71 81 77 74 77 77 74 74 71 65 65 61 65 55 55 52 45 42 42 29
48 65 65 65 61 55 61 74 74 71 71 74 81 84 84 81 81 87 87 84 77 81 81 74 77 68 71 71 68 61 61 61 58 55 52 45 48 45 45 42 39 39 29
48 55 65 68 68 58 61 68 71 74 74 74 77 84 77 77 77 71 77 77 71 65 68 74 77 68 61 65 58 58 55 55 52 52 45 42 39 39 42 42 35 35 26
55 61 68 68 65 65 61 65 71 71 71 71 68 71 74 74 74 71 71 68 65 55 55 65 58 55 52 52 52 58 55 52 52 48 45 35 35 35 35 32 32 26 23
71 71 74 81 71 65 68 71 65 65 68 68 65 68 74 74 71 68 68 68 65 55 58 52 55 48 52 35 45 48 45 48 45 42 42 39 32 29 32 29 26 23 23
74 74 74 74 74 71 68 71 65 61 61 65 65 61 68 68 65 65 61 61 58 39 55 45 45 45 32 23 32 29 35 35 26 29 29 29 26 23 23 19 23 19 23
74 74 71 74 71 71 71 74 68 65 61 61 61 58 58 61 65 61 61 48 45 45 48 48 39 32 19 10 10 19 23 23 26 29 19 23 19 13 10 10 6 13 19
68 71 71 77 74 74 68 65 65 65 61 52 52 58 55 55 55 52 52 48 48 45 48 48 42 35 16 6 6 3 16 19 23 19 23 19 16 10 13 6 0 0 0
58 65 71 71 68 68 65 61 58 61 61 58 61 55 55 45 42 52 52 55 58 48 48 42 39 32 19 6 3 6 6 16 19 19 19 16 16 10 13 13 13 10 6
58 65 61 55 58 58 61 58 61 55 58 52 58 52 48 42 45 52 58 55 52 48 52 45 42 35 16 3 3 0 16 13 13 13 13 13 13 10 10 10 13 13 13
58 55 52 55 58 55 58 58 52 58 58 58 58 55 52 45 45 52 61 58 55 48 48 42 39 35 26 10 3 0 10 13 10 13 13 13 13 6 3 6 13 13 13
48 52 58 55 55 55 58 58 55 55 52 52 58 58 48 39 45 55 58 55 58 55 48 42 42 39 23 10 3 0 6 10 10 10 10 10 0 0 0 0 6 10 6
45 45 52 55 55 65 65 65 61 55 55 52 48 45 52 42 39 55 42 45 52 45 45 45 32 32 19 13 3 0 0 3 10 10 10 10 0 0 0 0 0 0 0
42 42 48 45 55 55 55 55 52 55 48 52 48 48 52 52 45 48 39 42 42 42 32 29 29 32 23 13 6 0 0 0 0 10 10 6 0 0 0 0 0 0 0
45 45 45 45 45 48 48 52 48 52 48 42 42 45 42 42 45 48 39 32 39 32 32 29 29 23 16 13 13 3 0 0 0 0 0 0 0 0 0 0 3 3 0
48 48 45 48 48 48 52 45 42 45 35 35 42 39 32 35 32 29 32 29 29 32 23 26 29 23 16 13 10 16 6 3 6 3 0 0 0 0 0 0 0 0 3
45 45 48 48 48 48 45 45 42 39 39 35 39 32 26 32 29 26 26 6 10 13 6 16 16 16 10 0 0 3 0 0 0 0 0 3 0 0 0 0 0 0 0

GEFSMW_con_cape1000_240.txt.gz
Probability
13 16 26 26 29 26 19 23 32 29 32 32 29 32 26 26 19 19 16 16 19 16 10 10 6 3 3 3 6 3 3 0 0 0 0 0 0 0 0 0 0 0 0
13 19 23 32 32 29 26 32 42 45 45 35 39 42 29 32 26 23 19 16 23 19 19 10 6 6 6 3 6 6 0 0 0 0 0 0 0 0 0 0 0 0 0
10 19 26 26 35 26 39 48 32 48 45 45 39 32 32 32 29 32 19 19 26 19 19 13 10 10 3 3 3 6 6 0 0 0 3 0 0 0 0 0 0 0 0
16 26 26 26 32 39 35 29 35 48 45 42 39 39 35 35 35 26 26 23 32 32 29 23 16 16 6 6 3 3 3 0 0 0 0 0 0 0 0 0 0 0 0
13 16 23 23 29 42 45 39 42 42 42 39 42 39 42 39 39 39 35 23 29 32 32 26 16 13 10 6 0 3 3 3 0 0 0 0 0 0 0 0 0 0 0
16 6 16 26 39 45 52 45 52 48 42 48 42 39 42 39 39 29 26 26 32 32 32 23 16 13 10 16 3 3 6 6 0 0 0 0 0 0 0 0 0 0 0
19 13 19 32 35 42 52 55 52 52 52 55 52 42 42 39 39 26 26 26 29 26 29 39 26 13 13 13 10 6 6 6 6 6 6 3 3 0 0 0 0 0 0
16 19 23 29 32 35 48 55 52 45 45 48 39 35 42 39 26 23 23 19 26 29 23 32 29 26 19 16 13 13 10 10 6 6 6 3 0 0 3 3 0 0 0
19 16 23 26 39 45 48 58 52 48 45 45 42 39 32 35 35 32 19 19 16 19 13 23 23 26 29 23 19 19 13 16 10 10 6 6 3 3 0 3 0 0 0
23 32 32 32 32 42 48 55 52 52 52 52 42 39 35 35 35 39 23 16 13 16 16 13 16 19 16 13 19 16 23 16 16 13 6 6 3 3 3 0 0 0 0
32 32 39 32 35 45 45 45 48 45 48 45 35 39 39 35 32 29 19 19 16 16 16 16 16 13 13 19 19 19 19 19 16 16 13 10 10 10 3 3 0 0 0
26 32 29 32 35 39 42 48 48 45 42 45 39 35 39 32 29 23 23 16 19 19 13 16 16 16 13 19 19 19 19 23 19 13 10 6 6 3 6 6 3 0 0
32 23 23 35 39 45 48 52 52 48 42 42 39 39 35 32 23 23 23 19 19 16 13 10 10 10 13 16 19 19 16 16 13 10 10 3 3 6 6 6 3 3 0
32 29 19 23 39 45 45 48 55 42 45 32 35 35 35 23 26 23 26 19 16 16 16 13 13 10 13 13 16 16 19 13 13 10 6 3 3 3 6 6 6 3 3
32 29 19 16 29 39 35 45 35 29 39 32 39 35 29 23 23 23 23 23 16 16 16 16 13 13 13 13 13 19 13 13 6 6 3 6 6 6 3 3 6 6 3
35 29 19 23 32 35 39 32 32 35 39 39 39 32 32 32 23 19 13 19 16 16 16 16 13 13 13 13 13 10 10 6 3 3 3 3 3 6 3 3 3 3 6
35 39 29 29 32 35 32 26 29 35 39 39 42 42 32 29 23 19 19 16 23 16 16 16 16 13 13 13 10 6 6 3 3 3 6 6 10 3 3 3 0 0 0
32 32 32 35 39 32 32 35 32 35 39 39 39 39 32 26 26 26 26 19 16 23 19 19 16 13 13 10 3 0 0 0 0 3 3 6 6 6 3 3 3 0 0
29 32 32 32 32 35 32 35 32 35 35 35 39 39 29 29 29 26 26 29 23 19 16 16 13 13 10 10 3 0 3 3 3 3 3 3 3 6 3 3 3 0 0
26 23 23 26 26 23 29 32 29 35 35 35 35 29 29 29 29 29 29 26 26 23 19 19 13 10 10 6 3 0 6 6 3 3 3 3 3 3 0 0 3 0 0
26 26 19 19 16 19 23 23 19 26 26 26 26 23 23 26 29 29 29 29 26 26 26 19 16 13 10 10 3 0 3 6 6 3 6 6 3 0 0 0 0 3 0
19 23 23 16 13 16 16 16 16 19 16 13 10 10 10 16 19 19 23 23 26 26 26 19 23 23 16 13 3 0 0 0 3 3 3 3 3 0 0 0 0 0 0
13 16 16 16 13 16 16 16 13 10 10 10 10 10 10 10 10 13 19 19 19 19 19 23 23 16 10 10 3 0 0 0 0 0 3 0 0 0 0 0 0 0 0
13 16 13 13 10 10 13 13 10 10 13 10 10 10 10 10 10 10 16 19 19 16 16 16 16 13 13 10 3 3 0 0 0 0 0 0 0 0 0 0 0 0 0
10 13 13 16 6 6 6 10 6 10 13 10 6 6 13 13 13 13 13 13 13 13 16 13 13 10 10 6 3 3 6 3 0 0 0 0 0 0 0 0 0 0 0
13 13 13 10 10 10 10 16 10 10 13 10 10 6 6 10 10 13 13 10 3 10 6 6 10 10 10 6 0 0 0 0 0 0 0 0 0 0 0 0 3 0 0

GEFSMW_con_cape1000_246.txt.gz
Probability
0 6 6 6 3 6 6 6 6 3 3 6 6 13 13 10 6 6 6 10 3 3 3 3 3 3 3 3 3 0 0 0 0 0 0 0 0 0 0 0 0 3 0
3 6 6 6 6 6 6 3 3 3 6 3 6 6 13 13 10 13 6 10 13 6 6 3 3 3 3 3 0 0 0 3 0 0 0 0 0 0 0 0 0 0 0
0 6 10 6 6 3 10 10 3 6 3 13 10 19 19 16 16 19 13 10 6 6 3 3 3 3 3 0 0 0 0 3 3 0 0 3 3 0 0 0 0 0 0
3 6 10 6 6 3 6 6 6 6 13 19 13 19 23 29 19 10 13 16 10 10 6 10 6 0 0 0 0 0 0 0 0 0 0 0 0 3 0 0 0 0 0
6 13 13 10 6 10 6 6 6 6 10 19 19 16 19 16 10 10 10 10 16 19 13 13 3 3 3 0 0 0 0 0 0 0 0 0 0 0 0 0 0 0 0
6 10 10 6 6 6 6 13 10 10 6 19 23 26 26 19 13 10 10 13 16 13 10 10 10 6 6 6 6 0 0 3 0 0 0 0 0 0 0 0 0 0 0
3 6 10 6 10 16 16 16 13 13 16 19 23 23 26 23 16 13 13 10 10 10 10 13 6 6 3 6 6 6 3 3 3 3 6 3 3 0 0 0 0 0 0
0 6 6 6 6 13 16 16 13 10 13 16 19 23 16 19 16 13 13 6 10 6 3 3 6 3 3 3 3 6 6 6 6 6 6 6 6 0 0 0 0 0 0
0 0 0 6 10 16 19 13 10 13 13 16 16 19 16 16 16 16 10 3 3 6 3 3 6 13 10 6 6 3 3 3 3 3 3 3 0 3 0 0 0 0 3
3 6 10 10 13 19 13 13 13 13 16 19 19 19 19 19 16 16 3 3 6 6 3 3 6 6 10 10 10 6 3 3 3 3 0 0 0 0 0 0 0 0 0
13 16 10 10 16 13 13 19 19 13 16 19 23 19 23 19 16 16 10 10 10 10 6 6 6 10 10 10 10 10 6 6 3 0 0 0 0 0 0 0 0 0 0
16 13 10 19 13 16 16 19 19 19 19 23 19 19 16 16 16 19 13 10 6 6 6 6 10 10 13 13 13 13 10 10 13 3 3 6 3 0 0 0 0 0 0
16 19 19 19 19 16 19 19 19 13 16 16 23 16 13 16 19 19 19 13 13 10 6 6 10 10 13 13 13 13 16 16 16 16 13 10 3 3 0 0 0 0 0
16 16 13 16 16 16 16 23 19 16 16 16 13 13 13 16 10 13 16 16 13 13 6 10 10 10 13 16 16 16 16 16 19 16 13 10 3 3 3 0 3 0 3
23 13 13 13 16 19 16 23 19 13 16 19 19 19 16 13 13 13 13 16 16 16 13 10 10 6 6 10 13 13 16 16 13 16 6 3 3 3 3 3 3 3 3
26 23 23 26 26 29 32 23 16 10 16 19 19 19 19 16 16 16 13 10 13 13 10 13 13 13 10 6 6 10 13 10 10 13 10 3 3 3 0 0 0 3 3
26 23 23 29 26 29 29 26 10 13 13 13 16 19 19 23 19 16 13 10 6 13 13 13 13 10 13 3 3 0 6 6 10 10 10 6 3 3 3 3 0 0 0
23 19 19 19 23 16 16 13 13 16 16 16 16 26 23 23 23 19 16 13 13 10 13 13 13 13 10 0 0 0 3 6 6 6 10 10 6 3 3 3 3 3 3
23 19 19 16 10 10 16 23 26 13 16 13 16 16 26 26 19 16 16 13 13 13 13 13 16 10 6 0 0 0 3 3 6 6 6 10 6 3 0 3 3 3 3
23 19 19 10 10 10 10 19 16 13 16 13 16 16 19 16 16 13 13 16 16 13 13 13 10 16 16 3 0 0 3 6 6 6 6 0 0 0 0 0 3 3 3
19 16 16 13 13 13 10 16 16 10 10 10 10 6 6 13 10 10 10 16 19 19 13 10 10 10 10 6 0 0 3 6 6 6 6 3 0 0 0 0 3 3 3
16 13 13 10 10 6 10 13 16 10 10 3 3 0 6 6 6 6 6 13 16 19 16 13 13 10 13 6 0 0 0 3 6 6 10 6 0 0 0 0 0 0 0
10 10 10 6 6 6 10 10 6 10 10 6 6 6 6 3 6 10 10 10 13 16 16 19 19 19 13 6 0 0 0 0 0 3 3 0 0 0 0 0 0 0 0
6 6 6 3 6 3 6 3 3 3 3 6 6 6 6 6 6 6 10 10 16 13 13 13 13 13 10 10 10 3 0 0 0 0 0 0 0 0 0 0 0 0 0
6 6 6 6 3 0 0 0 0 0 0 6 3 3 6 10 6 6 6 10 10 10 13 13 13 13 13 10 10 10 3 3 3 3 3 0 0 0 0 0 0 0 0
3 3 3 3 3 0 0 0 0 0 0 3 3 3 3 6 3 3 3 3 3 3 0 0 6 10 10 6 0 0 0 0 3 0 3 3 3 3 0 0 0 0 0

GEFSMW_con_cape1000_252.txt.gz
Probability
16 16 19 26 35 61 68 71 65 74 77 74 71 71 68 65 58 55 74 74 65 61 65 52 55 45 42 48 39 35 39 39 45 45 42 32 23 32 48 42 26 23 29
19 23 26 29 39 61 77 71 77 77 81 81 81 81 71 61 61 61 74 74 68 68 52 65 55 52 61 52 52 52 42 26 29 52 39 29 29 42 13 29 29 23 19
23 42 39 42 45 61 65 65 77 84 81 81 77 77 81 68 65 65 71 71 65 58 58 55 45 55 45 52 58 61 52 42 29 29 26 26 23 26 29 23 23 26 29
23 45 42 45 45 52 55 61 81 87 84 81 71 71 77 58 65 71 71 71 68 55 48 61 61 61 39 55 42 39 52 52 45 32 45 29 32 26 32 23 26 29 29
39 45 55 52 48 39 52 65 87 87 84 87 84 81 65 61 61 71 74 71 65 65 55 52 58 65 52 61 55 48 52 55 52 42 32 35 39 35 32 32 32 29 32
42 52 52 55 48 48 45 61 87 87 81 77 71 77 81 77 71 77 71 68 68 65 58 61 68 58 52 65 61 55 48 58 61 58 52 35 35 35 32 23 42 29 26
39 48 52 55 55 52 52 61 84 84 71 71 71 74 77 81 77 71 61 58 55 58 68 52 68 58 55 55 55 61 52 52 58 68 58 42 48 32 26 23 23 32 29
39 45 45 52 58 55 58 58 81 84 77 71 74 84 81 71 68 71 65 65 55 52 52 55 58 55 48 42 55 48 48 52 55 45 61 55 39 29 23 29 23 19 29
45 52 55 52 58 65 61 65 77 87 81 74 77 81 77 77 71 71 61 58 65 55 48 48 52 48 42 42 55 52 52 52 48 39 48 45 32 29 35 23 23 19 19
48 48 45 48 48 58 58 65 74 84 84 71 77 71 84 81 74 61 58 58 58 58 52 45 48 48 42 45 48 48 45 45 45 48 48 45 32 32 26 26 23 19 26
52 45 48 52 45 52 55 61 74 81 81 74 77 74 74 71 68 61 58 58 61 55 55 45 48 52 48 45 45 35 42 42 42 42 35 45 42 35 35 26 23 23 23
55 42 52 58 58 58 58 65 68 71 65 71 77 74 74 65 58 65 65 65 65 52 55 52 55 52 48 55 45 29 29 35 35 32 39 32 35 39 42 35 29 26 23
55 58 65 65 65 65 61 61 65 68 61 65 68 71 65 65 61 58 61 55 58 58 48 55 48 52 55 48 45 39 39 35 35 35 32 35 35 35 39 35 35 26 23
71 68 74 77 77 77 74 68 65 71 71 68 65 65 61 61 58 58 58 52 52 58 55 48 48 52 52 45 52 45 48 45 42 35 32 32 26 32 39 32 35 26 19
65 65 68 74 77 77 84 77 65 68 68 65 61 58 52 48 48 52 52 48 48 42 52 45 48 48 45 45 48 48 42 48 42 42 35 32 26 26 23 16 19 16 19
61 65 68 71 71 74 74 74 65 61 68 65 65 58 52 52 45 48 52 48 48 48 52 45 42 45 35 16 13 29 42 39 42 42 39 32 23 13 3 3 0 13 16
58 61 65 71 71 68 65 71 71 71 65 61 58 52 52 52 48 48 52 48 48 45 48 48 45 45 35 16 3 3 26 39 39 42 39 32 19 13 19 3 0 0 0
55 58 58 61 58 61 61 68 61 61 58 58 58 55 52 52 48 52 52 52 48 45 45 48 42 42 35 10 0 0 13 29 35 35 39 35 32 26 26 16 13 16 16
52 58 58 55 61 58 58 55 55 48 45 55 55 55 52 52 48 48 52 52 48 48 42 42 42 42 39 10 0 0 19 32 29 29 29 29 26 23 6 10 13 13 16
55 52 48 52 52 55 55 48 42 45 48 48 48 48 48 48 48 48 48 52 45 42 39 39 39 39 42 23 3 0 16 26 26 29 29 10 13 13 0 13 13 16 16
48 45 45 52 52 55 48 45 45 48 45 45 48 48 45 48 48 48 45 45 39 42 32 29 35 35 29 29 3 0 19 23 23 19 19 19 0 0 0 0 10 13 10
39 42 45 52 45 48 45 45 42 42 42 42 42 39 35 29 26 42 39 39 35 29 26 39 35 32 35 32 13 0 0 3 26 26 19 13 0 0 0 0 3 3 0
39 39 39 42 35 42 48 48 48 39 42 35 32 39 32 32 32 35 42 35 35 26 26 23 23 26 29 26 6 0 0 0 6 32 10 10 0 0 0 0 0 0 3
39 35 32 39 39 42 48 48 45 45 39 39 35 35 35 35 35 39 26 23 29 32 29 32 26 26 29 23 23 19 6 0 0 3 6 0 0 0 3 3 0 3 3
42 42 39 39 35 39 39 39 39 39 35 35 35 29 29 23 35 35 23 19 29 29 32 29 29 29 29 16 13 13 19 13 10 10 16 16 6 3 3 3 3 3 3
39 42 42 42 39 42 42 39 32 32 32 32 32 19 19 23 23 19 13 3 3 3 3 3 6 10 6 3 3 3 0 0 3 3 13 10 6 3 3 6 6 3 3